Home   Weather   25°16'S, 57°38'W   Past weeks
Flag for Paraguay

Past Weather in 25°16'S, 57°38'W, Paraguay — Yesterday and Last 2 Weeks

Now
82 °F

Sunny.


Feels Like: 85 °F
Forecast: 84 / 65 °F
Wind: No wind

Location: Asuncion / Aeropuerto

Current Time: Oct 20, 2019 at 1:49:01 pm

Latest Report: Oct 20, 2019 at 1:00 pm


Visibility: 10 mi

Pressure: 29.83 "Hg

Humidity: 62%

Dew Point: 68 °F

Location of 25°16'S, 57°38'WLocation

Past Weather in 25°16'S, 57°38'W — Graph

°F

25°16'S, 57°38'W Temperature Yesterday

Maximum temperature yesterday: 84 °F (at 3:00 pm)
Minimum temperature yesterday: 66 °F (at 2:00 am)
Average temperature yesterday: 73 °F

High & Low Weather Summary for the Past Weeks

 TemperatureHumidityPressure
High102 °F (Oct 12, 3:00 pm)100% (Oct 5, 10:00 pm)30.15 "Hg (Oct 5, 10:00 pm)
Low59 °F (Oct 7, 6:00 am)26% (Oct 13, 4:00 pm)29.65 "Hg (Oct 12, 5:00 pm)
Average76 °F71%29.93 "Hg
* Reported Oct 5 11:00 am — Oct 20 12:00 pm, 25°16'S, 57°38'W. Weather by CustomWeather, © 2019

Note: Actual official high and low records may vary slightly from our data, if they occured in-between our weather recording intervals... More about our weather records

Advertising

25°16'S, 57°38'W Weather History for the Previous 24 Hours

Scroll right to see more
 ConditionsComfort  
Time TempWeatherWind HumidityBarometerVisibility
12:00 pm
Sun, Oct 20
81 °FWarm.30 mph66%29.83 "HgN/A
11:00 am79 °FSunny.2 mph70%29.86 "Hg10 mi
10:30 am77 °FSunny.2 mph69%29.86 "Hg10 mi
10:00 am75 °FSunny.2 mph74%29.86 "Hg10 mi
9:30 am75 °FSunny.3 mph69%29.86 "Hg10 mi
9:00 am73 °FSunny.No wind83%29.86 "Hg10 mi
8:30 am73 °FSunny.No wind83%29.89 "Hg10 mi
8:00 am72 °FSunny.No wind88%29.89 "Hg10 mi
7:00 am70 °FSunny.No wind88%29.89 "Hg10 mi
6:00 am70 °FClear.3 mph88%29.89 "Hg10 mi
5:00 am70 °FClear.8 mph88%29.89 "Hg10 mi
4:00 am72 °FClear.10 mph83%29.89 "Hg10 mi
3:00 am72 °FClear.7 mph88%29.92 "Hg10 mi
2:00 am72 °FClear.5 mph88%29.95 "Hg10 mi
1:00 am72 °FClear.3 mph88%29.95 "Hg10 mi
12:00 am72 °FClear.5 mph88%29.95 "Hg10 mi
11:00 pm
Sat, Oct 19
73 °FClear.7 mph83%29.95 "Hg10 mi
10:00 pm73 °FClear.8 mph83%29.95 "Hg10 mi
9:00 pm75 °FClear.9 mph78%29.95 "Hg10 mi
8:00 pm75 °FPassing clouds.10 mph83%29.95 "HgN/A
7:00 pm77 °FPartly cloudy.13 mph74%29.95 "HgN/A
6:00 pm79 °FPartly sunny.12 mph70%29.98 "HgN/A
5:00 pm82 °FPartly sunny.7 mph66%29.98 "HgN/A
4:00 pm82 °FPartly sunny.9 mph66%29.98 "HgN/A
3:00 pm84 °FPartly sunny.7 mph66%30.01 "HgN/A
2:00 pm81 °FPartly sunny.3 mph70%30.04 "HgN/A
1:00 pm81 °FPartly sunny.9 mph70%30.04 "HgN/A
Weather by CustomWeather, © 2019

See weather overview